Weather History for Andrews, NC

Change the Weather History Date:

Tuesday, November 25, 2014

  Actual Average (KTYS) Record (KTYS)
Temperature  
Mean Temperature 46 °F 46 °F  
Max Temperature 59 °F 57 °F 74 °F (1908)
Min Temperature 33 °F 36 °F 5 °F (1950)
Degree Days  
Heating Degree Days 20 19  
Month to date heating degree days 365  
Since 1 July heating degree days 584  
Cooling Degree Days 0 0  
Month to date cooling degree days 0  
Year to date cooling degree days 1523  
Moisture  
Dew Point 34 °F    
Average Humidity 73    
Maximum Humidity 100    
Minimum Humidity 25    
Precipitation  
Precipitation 0.00 in 0.14 in 3.17 in (1900)
Month to date precipitation 3.22  
Year to date precipitation 42.57  
Snow  
Snow 0.00 in 0.00 in - ()
Month to date snowfall 0.0  
Since 1 July snowfall 0.0  
Since 1 September snowfall 0.0  
Snow Depth -    
Sea Level Pressure  
Sea Level Pressure 30.06 in    
Wind  
Wind Speed 0 mph (East)    
Max Wind Speed 4 mph    
Max Gust Speed -    
Visibility 9 miles    
Events      
T = Trace of Precipitation, MM = Missing Value Source: NWS Daily Summary

Daily Weather History Graph

Daily Weather History Graph

Search for Another Location

Airport:

Trip Planner

Search our weather history database for the weather conditions in past years. The results will help you decide how hot, cold, wet, or windy it might be!

Date:

Astronomy

Nov. 25, 2014 Rise Set
Actual Time 7:20 AM EST 5:24 PM EST
Civil Twilight 6:52 AM EST 5:52 PM EST
Nautical Twilight 6:21 AM EST 6:23 PM EST
Astronomical Twilight 5:50 AM EST 6:53 PM EST
Moon 10:05 AM EST (11/25) 8:47 PM EST (11/25)
Length of Visible Light 10h 59m
Length of Day
10h 04m
Waxing Crescent, 12% of the Moon is Illuminated
Nov 25
Waxing Crescent
Nov 29
First Quarter
Dec 6
Full
Dec 14
Last Quarter
Dec 21
New

Hourly Weather History & Observations

Time (EST) Temp. Windchill Dew Point Humidity Pressure Visibility Wind Dir Wind Speed Gust Speed Precip Events Conditions
12:15 AM 41.2 °F - 41.2 °F 100% 30.00 in 10.0 mi Calm Calm - N/A   Clear
12:35 AM 40.1 °F - 39.6 °F 98% 30.01 in 10.0 mi Calm Calm - N/A   Clear
12:55 AM 38.5 °F - 38.3 °F 99% 30.01 in 7.0 mi Calm Calm - N/A   Clear
1:15 AM 39.0 °F - 39.0 °F 100% 30.01 in 7.0 mi Calm Calm - N/A   Clear
1:35 AM 38.3 °F - 38.3 °F 100% 30.03 in 1.5 mi Calm Calm - N/A   Mist
1:55 AM 39.0 °F - 39.0 °F 100% 30.04 in 10.0 mi Calm Calm - N/A   Clear
2:15 AM 38.1 °F - 38.1 °F 100% 30.05 in 1.2 mi Calm Calm - N/A   Scattered Clouds
2:35 AM 38.5 °F - 38.5 °F 100% 30.05 in 4.0 mi Calm Calm - N/A   Clear
2:55 AM 37.2 °F - 37.2 °F 100% 30.05 in 7.0 mi Calm Calm - N/A   Clear
3:35 AM 37.6 °F - 37.6 °F 100% 30.06 in 1.8 mi Calm Calm - N/A   Scattered Clouds
3:55 AM 35.1 °F - 35.1 °F 100% 30.06 in 1.8 mi Calm Calm - N/A   Scattered Clouds
4:15 AM 36.7 °F - 36.7 °F 100% 30.06 in 7.0 mi Calm Calm - N/A   Scattered Clouds
4:35 AM 36.9 °F - 36.9 °F 100% 30.06 in 1.0 mi Calm Calm - N/A   Mostly Cloudy
4:55 AM 36.7 °F - 36.7 °F 100% 30.06 in 10.0 mi Calm Calm - N/A   Scattered Clouds
5:15 AM 34.9 °F - 34.9 °F 100% 30.06 in 1.2 mi Calm Calm - N/A   Mist
5:35 AM 35.8 °F - 35.8 °F 100% 30.05 in 3.0 mi Calm Calm - N/A   Clear
5:55 AM 35.6 °F - 35.6 °F 100% 30.06 in 10.0 mi Calm Calm - N/A   Clear
6:15 AM 35.1 °F - 35.1 °F 100% 30.07 in 10.0 mi Calm Calm - N/A   Clear
6:35 AM 33.1 °F - 32.7 °F 99% 30.08 in 10.0 mi Calm Calm - N/A   Clear
6:55 AM 34.3 °F - 34.0 °F 99% 30.08 in 10.0 mi Calm Calm - N/A   Clear
7:15 AM 34.9 °F - 34.2 °F 97% 30.11 in 10.0 mi Calm Calm - N/A   Clear
7:35 AM 34.7 °F - 34.0 °F 97% 30.10 in 10.0 mi Calm Calm - N/A   Clear
7:55 AM 34.7 °F - 34.0 °F 97% 30.11 in 10.0 mi Calm Calm - N/A   Clear
8:15 AM 36.0 °F - 34.7 °F 95% 30.11 in 10.0 mi Calm Calm - N/A   Clear
8:35 AM 36.7 °F - 36.1 °F 98% 30.12 in 10.0 mi Calm Calm - N/A   Clear
8:55 AM 37.9 °F - 36.5 °F 95% 30.12 in 10.0 mi Calm Calm - N/A   Clear
9:10 AM 38.3 °F - 36.0 °F 91% 30.13 in 10.0 mi Calm Calm - N/A   Clear
9:35 AM 38.3 °F - 35.8 °F 91% 30.12 in 10.0 mi Calm Calm - N/A   Clear
9:55 AM 39.2 °F - 37.0 °F 92% 30.12 in 10.0 mi Calm Calm - N/A   Clear
10:15 AM 42.1 °F - 38.5 °F 87% 30.12 in 10.0 mi Calm Calm - N/A   Clear
10:35 AM 45.5 °F - 36.1 °F 70% 30.12 in 10.0 mi Calm Calm - N/A   Clear
10:55 AM 48.9 °F - 36.0 °F 61% 30.12 in 10.0 mi Calm Calm - N/A   Clear
11:15 AM 51.3 °F - 29.8 °F 44% 30.12 in 10.0 mi Calm Calm - N/A   Clear
11:35 AM 52.7 °F - 28.8 °F 40% 30.11 in 10.0 mi East 3.5 mph - N/A   Clear
11:55 AM 53.6 °F - 27.0 °F 36% 30.10 in 10.0 mi Calm Calm - N/A   Clear
12:15 PM 55.2 °F - 25.2 °F 31% 30.08 in 10.0 mi Calm Calm - N/A   Clear
12:35 PM 56.5 °F - 24.3 °F 29% 30.07 in 10.0 mi Calm Calm - N/A   Clear
12:55 PM 57.2 °F - 25.0 °F 29% 30.07 in 10.0 mi Calm Calm - N/A   Clear
1:15 PM 57.4 °F - 25.7 °F 30% 30.06 in 10.0 mi West 3.5 mph - N/A   Clear
1:35 PM 58.3 °F - 26.8 °F 30% 30.04 in 10.0 mi SSW 3.5 mph - N/A   Clear
1:55 PM 58.1 °F - 24.4 °F 27% 30.03 in 10.0 mi Calm Calm - N/A   Clear
2:15 PM 58.3 °F - 23.5 °F 26% 30.01 in 10.0 mi Calm Calm - N/A   Clear
2:35 PM 58.6 °F - 22.6 °F 25% 30.01 in 10.0 mi Calm Calm - N/A   Clear
2:55 PM 57.4 °F - 22.5 °F 26% 30.00 in 10.0 mi Calm Calm - N/A   Clear
3:15 PM 58.1 °F - 23.9 °F 27% 29.99 in 10.0 mi Calm Calm - N/A   Clear
3:35 PM 57.9 °F - 28.0 °F 32% 29.99 in 10.0 mi Calm Calm - N/A   Clear
3:55 PM 57.4 °F - 27.5 °F 32% 29.99 in 10.0 mi Calm Calm - N/A   Clear
4:15 PM 56.3 °F - 26.2 °F 32% 30.00 in 10.0 mi North 3.5 mph - N/A   Clear
4:35 PM 55.6 °F - 25.9 °F 32% 30.00 in 10.0 mi NW 4.6 mph - N/A   Clear
4:55 PM 53.6 °F - 30.6 °F 41% 30.01 in 10.0 mi Calm Calm - N/A   Clear
5:15 PM 49.8 °F - 32.2 °F 51% 30.01 in 10.0 mi Calm Calm - N/A   Clear
5:35 PM 49.1 °F - 32.0 °F 52% 30.02 in 10.0 mi Calm Calm - N/A   Clear
5:55 PM 47.5 °F - 34.5 °F 61% 30.01 in 10.0 mi Calm Calm - N/A   Clear
6:15 PM 47.5 °F - 33.6 °F 59% 30.03 in 10.0 mi Calm Calm - N/A   Clear
6:35 PM 45.5 °F - 36.0 °F 69% 30.00 in 10.0 mi Calm Calm - N/A   Clear
6:55 PM 46.2 °F - 34.9 °F 65% 30.01 in 10.0 mi Calm Calm - N/A   Clear
7:15 PM 45.1 °F - 35.8 °F 70% 30.03 in 10.0 mi Calm Calm - N/A   Clear
7:35 PM 45.1 °F - 36.0 °F 70% 30.06 in 10.0 mi Calm Calm - N/A   Clear
7:55 PM 44.4 °F - 38.3 °F 79% 30.08 in 10.0 mi Calm Calm - N/A   Clear
8:15 PM 44.8 °F 43.3 °F 36.3 °F 72% 30.04 in 10.0 mi East 3.5 mph - N/A   Clear
8:35 PM 44.1 °F - 36.9 °F 76% 30.07 in 10.0 mi Calm Calm - N/A   Clear
8:55 PM 43.9 °F - 36.5 °F 75% 30.07 in 10.0 mi Calm Calm - N/A   Clear
9:16 PM 42.8 °F - 37.4 °F 81% 30.07 in 10.0 mi Calm Calm - N/A   Clear
9:35 PM 43.2 °F 41.5 °F 36.3 °F 77% 30.04 in 10.0 mi East 3.5 mph - N/A   Clear
9:55 PM 43.7 °F - 36.7 °F 76% 30.07 in 10.0 mi Calm Calm - N/A   Clear
10:15 PM 42.8 °F - 36.5 °F 78% 30.05 in 10.0 mi Calm Calm - N/A   Clear
10:35 PM 42.8 °F - 36.7 °F 79% 30.05 in 10.0 mi Calm Calm - N/A   Clear
10:55 PM 42.6 °F - 36.5 °F 79% 30.05 in 10.0 mi Calm Calm - N/A   Scattered Clouds
11:15 PM 42.4 °F - 37.2 °F 82% 30.04 in 10.0 mi Calm Calm - N/A   Scattered Clouds
11:35 PM 42.1 °F - 36.3 °F 80% 30.04 in 10.0 mi Calm Calm - N/A   Overcast
11:55 PM 41.5 °F - 37.0 °F 84% 30.03 in 10.0 mi Calm Calm - N/A   Overcast